Weather in Nelkan

Russia / Sakha (Yakutia) Republic     64°10′54″N   143°01′40″E
В апреле 2022 года жителям России запретили посещать сайт meteo.paraplan.net по решению Генеральной прокуратуры. Аудитория сайта уменьшилась в 10 раз. Владельцы сайта не видят смысла в поддержке погодного сервера в таких условиях. Сайт будет закрыт в октябре.
temp.,
°C
wind,
m/s
gust,
m/s
humid.,
%
clouds,
%
prec.,
mm/h
press.,
hPa
HPBL,
m
4 october, tue
tue423:00−10ene117973 0.0 101723
02:00−11ne118079 0.0 101731
05:00−12ene118275 0.0 101840
08:00−13ne118350 0.0 101938
11:00−10nw127289 0.0 1018355
14:00−7nnw236399 0.0 1016661
17:00−7n2364100 0.0 1015514
20:00−8nne2374100 0.0 1015132
5 october, wed
wed523:00−9nne2275100 0.0 1014105
02:00−9nne3373100 0.0 1012129
05:00−11nne3374100 0.0 1011104
08:00−11nne337377 0.0 100989
11:00−9n3465100 0.0 1007394
14:00−8n446197 0.0 1003650
17:00−8n3465100 0.0 1002457
20:00−10nnw2374100 0.0 100285
6 october, thu
thu623:00−11nnw2377100 0.0 100186
02:00−12nw228093 0.0 1001100
05:00−11nw2379100 0.0 1001187
08:00−12nw2278100 0.0 1002199
11:00−11wnw2270100 0.0 1003431
14:00−10wnw2264100 0.0 1003557
17:00−9w226490 0.0 1004461
20:00−12nw1172100 0.0 1007102
7 october, fri
fri723:00−14sse0077100 0.0 100965
02:00−14s0178100 0.0 101199
05:00−14ssw1180100 0.0 1013101
08:00−14s1181100 0.0 1014104
11:00−13ssw118097 0.1 1015287
14:00−12sw117887 0.1 1014390
17:00−11wsw1178100 0.1 1014390
20:00−12s118898 0.1 101692
8 october, sat
sat823:00−14se229229 0.1 101738
02:00−15se228980 0.0 101841
05:00−15sse228691 0.0 101847
08:00−15s239098 0.0 101982
11:00−13ssw228597 0.1 1019219
14:00−11ssw1175100 0.0 1018288
17:00−10sse2276100 0.1 1017235
20:00−11se3390100 0.1 101871